Location: Oberwangen
(47.4286°N, 8.9679°E)
Time: 00:39:45
(UTC+00:00)

Lacrosse 5 rocket - Visible Passes

Search period start: 24 October 2021 00:00
Search period end: 03 November 2021 00:00
Orbit: 463 x 629 km, 57.0° (Epoch: 23 October)

Date Brightness Start Highest point End Pass type
(mag) Time Alt. Az. Time Alt. Az. Time Alt. Az.
24 Oct 2.9 03:15:52 32° NNE 03:15:52 32° NNE 03:18:39 10° NE visible
24 Oct 3.1 04:51:28 13° NW 04:54:27 24° N 04:58:08 10° NE visible
25 Oct 3.2 03:09:53 27° NNE 03:09:53 27° NNE 03:12:19 10° NE visible
25 Oct 3.1 04:45:29 13° NW 04:48:17 23° N 04:51:56 10° NE visible
26 Oct 3.5 03:03:52 23° NNE 03:03:52 23° NNE 03:05:59 10° NE visible
26 Oct 3.2 04:39:28 14° NW 04:42:07 23° N 04:45:46 10° NE visible
27 Oct 3.7 02:57:51 20° NNE 02:57:51 20° NNE 02:59:40 10° NE visible
27 Oct 3.2 04:33:27 15° NW 04:35:57 24° N 04:39:36 10° ENE visible
28 Oct 3.9 02:51:49 18° NNE 02:51:49 18° NNE 02:53:22 10° NE visible
28 Oct 3.2 04:27:25 16° NW 04:29:46 24° N 04:33:29 10° ENE visible
29 Oct 4.1 02:45:48 16° NE 02:45:48 16° NE 02:47:04 10° NE visible
29 Oct 3.1 04:21:23 17° NNW 04:23:35 25° N 04:27:22 10° ENE visible
30 Oct 4.2 02:39:46 15° NE 02:39:46 15° NE 02:40:48 10° NE visible
30 Oct 3.1 04:15:22 19° NNW 04:17:23 27° NNE 04:21:15 10° ENE visible
31 Oct 4.4 02:33:46 14° NE 02:33:46 14° NE 02:34:33 10° NE visible
31 Oct 3.0 04:09:22 22° NNW 04:11:11 29° NNE 04:15:09 10° ENE visible
01 Nov 4.5 02:27:48 12° NE 02:27:48 12° NE 02:28:20 10° NE visible
01 Nov 2.9 04:03:24 25° NNW 04:04:58 32° NNE 04:09:02 10° E visible
02 Nov 4.6 02:21:52 11° NE 02:21:52 11° NE 02:22:09 10° NE visible
02 Nov 2.7 03:57:28 29° NNW 03:58:44 35° NNE 04:02:55 10° E visible
02 Nov 1.7 05:33:44 10° NW 05:38:10 67° SW 05:42:43 10° SE visible
